Lake Hood, AK

5:48 PM AKDT on May 24, 2017 (GMT -0800)
Lake Hood

Weather History for PALH - February, 2013

Change the Weather History Date:

Monday, February 18, 2013

  Actual Average Record
Temperature  
Mean Temperature 14 °F -  
Max Temperature 18 °F 27 °F 46 °F (2006)
Min Temperature 9 °F 17 °F 1 °F (2004)
Degree Days  
Heating Degree Days 52    
Moisture  
Dew Point 1 °F    
Average Humidity 54    
Maximum Humidity 73    
Minimum Humidity 45    
Precipitation  
Precipitation 0.00 in - - ()
Sea Level Pressure  
Sea Level Pressure 29.88 in    
Wind  
Wind Speed 10 mph (North)    
Max Wind Speed 16 mph    
Max Gust Speed 24 mph    
Visibility 10 miles    
Events      
Averages and records for this station are not official NWS values.
T = Trace of Precipitation, MM = Missing Value Source: NWS Daily Summary

Daily Weather History Graph

Daily Weather History Graph

Search for Another Location

Airport or City:

Trip Planner

Search our weather history database for the weather conditions in past years. The results will help you decide how hot, cold, wet, or windy it might be!

Date:

Astronomy

Feb. 18, 2013 Rise Set
Actual Time 8:32 AM AKST 5:56 PM AKST
Civil Twilight 7:47 AM AKST 6:41 PM AKST
Nautical Twilight 6:57 AM AKST 7:31 PM AKST
Astronomical Twilight 6:07 AM AKST 8:21 PM AKST
Moon 10:53 AM AKST (2/18) 4:15 AM AKST (2/18)
Length of Visible Light 10h 54m
Length of Day
9h 24m
First Quarter, 60% of the Moon is Illuminated
Feb 18
First Quarter
Feb 25
Full
Mar 4
Last Quarter
Mar 11
New
Mar 19
First Quarter

Hourly Weather History & Observations

Time (AKST) Temp. Windchill Dew Point Humidity Pressure Visibility Wind Dir Wind Speed Gust Speed Precip Events Conditions
12:53 AM 17.1 °F 2.0 °F 1.0 °F 50% 29.82 in 10.0 mi NNE 16.1 mph 24.2 mph N/A   Overcast
1:53 AM 17.1 °F 3.6 °F -0.9 °F 45% 29.84 in 10.0 mi NNE 12.7 mph - N/A   Overcast
3:53 AM 16.0 °F 5.3 °F -0.9 °F 47% 29.85 in 10.0 mi NNE 8.1 mph - N/A   Overcast
4:53 AM 16.0 °F 1.1 °F -2.0 °F 45% 29.86 in 10.0 mi North 15.0 mph - N/A   Overcast
5:53 AM 16.0 °F 6.3 °F -0.0 °F 49% 29.87 in 10.0 mi North 6.9 mph - N/A   Overcast
6:16 AM 15.8 °F 4.2 °F -0.4 °F 49% 29.87 in 10.0 mi North 9.2 mph - N/A   Overcast
6:53 AM 16.0 °F 4.4 °F -0.9 °F 47% 29.87 in 10.0 mi North 9.2 mph - N/A   Overcast
7:53 AM 16.0 °F 4.4 °F 1.0 °F 52% 29.88 in 10.0 mi North 9.2 mph - N/A   Overcast
8:53 AM 15.1 °F 4.2 °F 1.0 °F 54% 29.88 in 10.0 mi North 8.1 mph - N/A   Overcast
9:53 AM 15.1 °F 1.8 °F -0.9 °F 49% 29.88 in 10.0 mi North 11.5 mph - N/A   Mostly Cloudy
10:06 AM 14.0 °F 0.5 °F -0.4 °F 53% 29.88 in 10.0 mi North 11.5 mph - N/A   Scattered Clouds
10:53 AM 15.1 °F 5.2 °F -0.0 °F 51% 29.90 in 10.0 mi North 6.9 mph - N/A   Clear
11:53 AM 16.0 °F 2.9 °F -0.0 °F 49% 29.91 in 10.0 mi North 11.5 mph - N/A   Clear
12:53 PM 16.0 °F 6.3 °F 1.0 °F 52% 29.91 in 10.0 mi North 6.9 mph - N/A   Clear
1:53 PM 17.1 °F 8.7 °F 3.9 °F 56% 29.91 in 10.0 mi North 5.8 mph - N/A   Partly Cloudy
2:53 PM 18.0 °F 12.7 °F 6.1 °F 60% 29.91 in 10.0 mi NNE 3.5 mph - N/A   Clear
3:53 PM 18.0 °F 11.1 °F 5.0 °F 57% 29.91 in 10.0 mi NNE 4.6 mph - N/A   Clear
4:53 PM 17.1 °F 8.7 °F 3.0 °F 54% 29.88 in 10.0 mi ENE 5.8 mph - N/A   Clear
5:53 PM 15.1 °F - 3.9 °F 61% 29.88 in 10.0 mi Calm Calm - N/A   Clear
6:53 PM 12.0 °F 5.9 °F 5.0 °F 73% 29.89 in 10.0 mi SW 3.5 mph - N/A   Clear
7:53 PM 9.0 °F 2.4 °F 1.0 °F 70% 29.90 in 10.0 mi NNW 3.5 mph - N/A   Clear
8:53 PM 14.0 °F 2.0 °F -0.9 °F 52% 29.88 in 10.0 mi NNE 9.2 mph - N/A   Clear
9:53 PM 10.0 °F -0.9 °F -0.0 °F 64% 29.88 in 10.0 mi North 6.9 mph - N/A   Clear
10:31 PM 12.2 °F 1.7 °F -0.4 °F 57% 29.89 in 10.0 mi North 6.9 mph - N/A   Mostly Cloudy
10:53 PM 12.9 °F 2.6 °F -0.0 °F 56% 29.90 in 10.0 mi North 6.9 mph - N/A   Overcast
11:33 PM 10.4 °F 0.8 °F -0.4 °F 62% 29.87 in 10.0 mi NNE 5.8 mph - N/A   Scattered Clouds
11:53 PM 10.9 °F 0.2 °F -2.0 °F 56% 29.87 in 10.0 mi North 6.9 mph - N/A   Clear